Time,TemperatureF,DewpointF,PressureIn,WindDirection,WindDirectionDegrees,WindSpeedMPH,WindSpeedGustMPH,Humidity,HourlyPrecipIn,Conditions,Clouds,dailyrainin,SoftwareType,DateUTC
2013-07-27 00:01:00,59.5,58.9,29.80,SSW,194,0.0,0.0,98,0.00,,,0.00,VWS V14.01,2013-07-27 04:01:00,
2013-07-27 00:02:00,59.5,58.9,29.80,SSW,194,0.0,0.0,98,0.00,,,0.00,VWS V14.01,2013-07-27 04:02:00,
2013-07-27 00:03:00,59.5,58.9,29.80,SSW,194,0.0,0.0,98,0.00,,,0.00,VWS V14.01,2013-07-27 04:03:00,
2013-07-27 00:08:00,59.5,58.9,29.80,SSW,194,0.0,0.0,98,0.00,,,0.00,VWS V14.01,2013-07-27 04:08:00,
2013-07-27 00:13:00,59.6,59.0,29.80,SSW,193,0.0,0.0,98,0.00,,,0.00,VWS V14.01,2013-07-27 04:13:00,
2013-07-27 00:18:00,59.6,59.0,29.80,SSW,193,0.0,0.0,98,0.00,,,0.00,VWS V14.01,2013-07-27 04:18:00,
2013-07-27 00:23:00,59.7,59.1,29.80,SSW,192,0.0,0.0,98,0.00,,,0.00,VWS V14.01,2013-07-27 04:23:00,
2013-07-27 00:28:00,59.7,59.1,29.80,SSW,192,0.0,0.0,98,0.00,,,0.00,VWS V14.01,2013-07-27 04:28:00,
2013-07-27 00:34:00,59.8,59.2,29.80,SSW,192,0.0,0.0,98,0.00,,,0.00,VWS V14.01,2013-07-27 04:34:00,
2013-07-27 00:39:00,59.9,59.3,29.80,SSW,192,0.0,0.0,98,0.00,,,0.00,VWS V14.01,2013-07-27 04:39:00,
2013-07-27 00:44:00,60.0,59.4,29.79,SSW,192,0.0,0.0,98,0.00,,,0.00,VWS V14.01,2013-07-27 04:44:00,
2013-07-27 00:49:00,60.2,59.6,29.79,SSW,192,0.0,0.0,98,0.00,,,0.00,VWS V14.01,2013-07-27 04:49:00,
2013-07-27 00:54:00,60.2,59.6,29.80,SSW,192,0.0,0.0,98,0.00,,,0.00,VWS V14.01,2013-07-27 04:54:00,
2013-07-27 00:59:00,60.2,59.6,29.80,SSW,193,0.0,0.0,98,0.00,,,0.00,VWS V14.01,2013-07-27 04:59:00,
2013-07-27 01:04:00,60.3,59.7,29.79,WSW,239,0.0,0.0,98,0.00,,,0.00,VWS V14.01,2013-07-27 05:04:00,
2013-07-27 01:09:00,60.4,59.8,29.79,WSW,238,0.0,0.0,98,0.00,,,0.00,VWS V14.01,2013-07-27 05:09:00,
2013-07-27 01:14:00,60.5,59.9,29.79,WSW,238,0.0,0.0,98,0.00,,,0.00,VWS V14.01,2013-07-27 05:14:00,
2013-07-27 01:19:00,60.5,59.9,29.79,WSW,238,0.0,0.0,98,0.00,,,0.00,VWS V14.01,2013-07-27 05:19:00,
2013-07-27 01:24:00,60.4,59.8,29.79,WSW,238,0.0,0.0,98,0.00,,,0.00,VWS V14.01,2013-07-27 05:24:00,
2013-07-27 01:29:00,60.4,59.8,29.79,WSW,238,0.0,0.0,98,0.00,,,0.00,VWS V14.01,2013-07-27 05:29:00,
2013-07-27 01:34:00,60.3,59.7,29.79,NNW,347,0.0,0.0,98,0.00,,,0.00,VWS V14.01,2013-07-27 05:34:00,
2013-07-27 01:39:00,60.2,59.6,29.79,North,349,0.0,0.0,98,0.00,,,0.00,VWS V14.01,2013-07-27 05:39:00,
2013-07-27 01:44:00,60.0,59.4,29.79,NNE,12,0.0,0.0,98,0.00,,,0.00,VWS V14.01,2013-07-27 05:44:00,
2013-07-27 01:50:00,59.8,59.2,29.80,NW,311,0.0,0.0,98,0.00,,,0.00,VWS V14.01,2013-07-27 05:50:00,
2013-07-27 01:55:00,59.7,59.1,29.80,NW,319,0.0,0.0,98,0.00,,,0.00,VWS V14.01,2013-07-27 05:55:00,
2013-07-27 02:00:00,59.6,59.0,29.80,NNW,327,0.0,0.0,98,0.00,,,0.00,VWS V14.01,2013-07-27 06:00:00,
2013-07-27 02:05:00,59.5,58.7,29.80,NW,316,0.0,0.0,97,0.00,,,0.00,VWS V14.01,2013-07-27 06:05:00,
2013-07-27 02:10:00,59.4,58.5,29.80,NNW,345,0.0,0.0,97,0.00,,,0.00,VWS V14.01,2013-07-27 06:10:00,
2013-07-27 02:15:00,59.2,58.3,29.79,North,9,0.0,0.0,97,0.00,,,0.00,VWS V14.01,2013-07-27 06:15:00,
2013-07-27 02:20:00,59.1,58.2,29.79,North,5,0.0,0.0,97,0.00,,,0.00,VWS V14.01,2013-07-27 06:20:00,
2013-07-27 02:25:00,59.1,58.2,29.79,NNW,331,0.0,0.0,97,0.00,,,0.00,VWS V14.01,2013-07-27 06:25:00,
2013-07-27 02:30:00,58.9,58.0,29.79,North,351,0.0,0.0,97,0.00,,,0.00,VWS V14.01,2013-07-27 06:30:00,
2013-07-27 02:35:00,58.8,58.0,29.79,North,355,0.0,0.0,97,0.00,,,0.00,VWS V14.01,2013-07-27 06:35:00,
2013-07-27 02:40:00,58.6,57.8,29.80,NW,316,0.0,0.0,97,0.00,,,0.00,VWS V14.01,2013-07-27 06:40:00,
2013-07-27 02:45:00,58.4,57.6,29.80,NW,326,0.0,0.0,97,0.00,,,0.00,VWS V14.01,2013-07-27 06:45:00,
2013-07-27 02:50:00,58.1,57.3,29.80,NW,325,3.0,0.0,97,0.00,,,0.00,VWS V14.01,2013-07-27 06:50:00,
2013-07-27 02:55:00,57.9,57.1,29.80,NNE,33,0.0,0.0,97,0.00,,,0.00,VWS V14.01,2013-07-27 06:55:00,
2013-07-27 03:00:00,57.7,56.9,29.81,North,360,1.0,0.0,97,0.00,,,0.00,VWS V14.01,2013-07-27 07:00:00,
2013-07-27 03:05:00,57.5,56.7,29.80,North,351,0.0,0.0,97,0.00,,,0.00,VWS V14.01,2013-07-27 07:05:00,
2013-07-27 03:10:00,57.3,56.5,29.81,NNW,327,0.0,0.0,97,0.00,,,0.00,VWS V14.01,2013-07-27 07:10:00,
2013-07-27 03:15:00,57.2,56.4,29.81,North,9,0.0,0.0,97,0.00,,,0.00,VWS V14.01,2013-07-27 07:15:00,
2013-07-27 03:20:00,57.1,56.3,29.81,North,350,0.0,0.0,97,0.00,,,0.00,VWS V14.01,2013-07-27 07:20:00,
2013-07-27 03:26:00,57.0,56.2,29.80,WNW,303,4.0,0.0,97,0.00,,,0.00,VWS V14.01,2013-07-27 07:26:00,
2013-07-27 03:31:00,56.9,56.1,29.81,North,349,0.0,0.0,97,0.00,,,0.00,VWS V14.01,2013-07-27 07:31:00,
2013-07-27 03:37:00,56.9,56.1,29.81,NW,314,0.0,0.0,97,0.00,,,0.00,VWS V14.01,2013-07-27 07:37:00,
2013-07-27 03:42:00,56.8,56.0,29.81,NNW,343,0.0,0.0,97,0.00,,,0.00,VWS V14.01,2013-07-27 07:42:00,
2013-07-27 03:47:00,56.8,56.0,29.80,NNW,335,3.0,0.0,97,0.00,,,0.00,VWS V14.01,2013-07-27 07:47:00,
2013-07-27 03:52:00,56.8,56.0,29.81,NW,323,0.0,0.0,97,0.00,,,0.00,VWS V14.01,2013-07-27 07:52:00,
2013-07-27 03:57:00,56.7,55.9,29.81,WNW,301,0.0,0.0,97,0.00,,,0.00,VWS V14.01,2013-07-27 07:57:00,
2013-07-27 04:02:00,56.7,55.9,29.81,NW,313,0.0,0.0,97,0.00,,,0.00,VWS V14.01,2013-07-27 08:02:00,
2013-07-27 04:07:00,56.6,55.8,29.81,North,11,0.0,0.0,97,0.00,,,0.00,VWS V14.01,2013-07-27 08:07:00,
2013-07-27 04:12:00,56.6,55.8,29.81,North,355,0.0,0.0,97,0.00,,,0.00,VWS V14.01,2013-07-27 08:12:00,
2013-07-27 04:17:00,56.6,55.8,29.81,NE,40,0.0,0.0,97,0.00,,,0.00,VWS V14.01,2013-07-27 08:17:00,
2013-07-27 04:22:00,56.5,55.7,29.81,North,360,6.0,0.0,97,0.00,,,0.00,VWS V14.01,2013-07-27 08:22:00,
2013-07-27 04:27:00,56.5,55.7,29.81,North,360,0.0,0.0,97,0.00,,,0.00,VWS V14.01,2013-07-27 08:27:00,
2013-07-27 04:32:00,56.4,55.6,29.81,NNW,344,0.0,0.0,97,0.00,,,0.00,VWS V14.01,2013-07-27 08:32:00,
2013-07-27 04:38:00,56.3,55.5,29.81,NNW,336,0.0,0.0,97,0.00,,,0.00,VWS V14.01,2013-07-27 08:38:00,
2013-07-27 04:43:00,56.2,55.4,29.81,NNW,329,0.0,0.0,97,0.00,,,0.00,VWS V14.01,2013-07-27 08:43:00,
2013-07-27 04:48:00,56.1,55.3,29.81,North,355,0.0,0.0,97,0.00,,,0.00,VWS V14.01,2013-07-27 08:48:00,
2013-07-27 04:53:00,56.0,55.2,29.81,North,5,0.0,0.0,97,0.00,,,0.00,VWS V14.01,2013-07-27 08:53:00,
2013-07-27 04:58:00,55.9,55.1,29.81,NNW,346,5.0,0.0,97,0.00,,,0.00,VWS V14.01,2013-07-27 08:58:00,
2013-07-27 05:03:00,55.7,54.9,29.81,North,5,4.0,0.0,97,0.00,,,0.00,VWS V14.01,2013-07-27 09:03:00,
2013-07-27 05:08:00,55.6,54.8,29.81,North,5,0.0,0.0,97,0.00,,,0.00,VWS V14.01,2013-07-27 09:08:00,
2013-07-27 05:13:00,55.5,54.7,29.81,North,351,0.0,0.0,97,0.00,,,0.00,VWS V14.01,2013-07-27 09:13:00,
2013-07-27 05:18:00,55.4,54.6,29.81,NNW,344,0.0,0.0,97,0.00,,,0.00,VWS V14.01,2013-07-27 09:18:00,
2013-07-27 05:24:00,55.4,54.6,29.81,NNW,333,0.0,0.0,97,0.00,,,0.00,VWS V14.01,2013-07-27 09:24:00,
2013-07-27 05:29:00,55.4,54.6,29.81,NNW,331,0.0,0.0,97,0.00,,,0.00,VWS V14.01,2013-07-27 09:29:00,
2013-07-27 05:34:00,55.4,54.6,29.81,North,355,3.0,0.0,97,0.00,,,0.00,VWS V14.01,2013-07-27 09:34:00,
2013-07-27 05:39:00,55.3,54.5,29.81,NNW,342,0.0,0.0,97,0.00,,,0.00,VWS V14.01,2013-07-27 09:39:00,
2013-07-27 05:44:00,55.3,54.5,29.81,NNW,346,0.0,0.0,97,0.00,,,0.00,VWS V14.01,2013-07-27 09:44:00,
2013-07-27 05:49:00,55.3,54.5,29.81,North,350,4.0,0.0,97,0.00,,,0.00,VWS V14.01,2013-07-27 09:49:00,
2013-07-27 05:54:00,55.1,54.3,29.81,NNW,334,0.0,0.0,97,0.00,,,0.00,VWS V14.01,2013-07-27 09:54:00,
2013-07-27 05:59:00,55.1,54.3,29.81,North,351,0.0,0.0,97,0.00,,,0.00,VWS V14.01,2013-07-27 09:59:00,
2013-07-27 06:04:00,55.0,54.2,29.81,North,355,0.0,0.0,97,0.00,,,0.00,VWS V14.01,2013-07-27 10:04:00,
2013-07-27 06:09:00,55.0,54.2,29.82,North,360,0.0,0.0,97,0.00,,,0.00,VWS V14.01,2013-07-27 10:09:00,
2013-07-27 06:14:00,55.0,54.2,29.82,North,360,0.0,0.0,97,0.00,,,0.00,VWS V14.01,2013-07-27 10:14:00,
2013-07-27 06:19:00,55.0,54.2,29.82,North,360,0.0,0.0,97,0.00,,,0.00,VWS V14.01,2013-07-27 10:19:00,
2013-07-27 06:24:00,55.0,54.2,29.82,NNW,344,0.0,0.0,97,0.00,,,0.00,VWS V14.01,2013-07-27 10:24:00,
2013-07-27 06:30:00,55.1,54.3,29.82,NNW,346,0.0,0.0,97,0.00,,,0.00,VWS V14.01,2013-07-27 10:30:00,
2013-07-27 06:35:00,55.1,54.3,29.82,NNW,341,0.0,0.0,97,0.00,,,0.00,VWS V14.01,2013-07-27 10:35:00,
2013-07-27 06:40:00,55.1,54.3,29.82,NNW,332,0.0,0.0,97,0.00,,,0.00,VWS V14.01,2013-07-27 10:40:00,
2013-07-27 06:45:00,55.1,54.3,29.82,NNW,333,0.0,0.0,97,0.00,,,0.00,VWS V14.01,2013-07-27 10:45:00,
2013-07-27 06:50:00,55.1,54.3,29.82,NNW,335,0.0,0.0,97,0.00,,,0.00,VWS V14.01,2013-07-27 10:50:00,
2013-07-27 06:55:00,55.2,54.4,29.82,NNW,337,0.0,0.0,97,0.00,,,0.00,VWS V14.01,2013-07-27 10:55:00,
2013-07-27 07:00:00,55.2,54.4,29.82,NNW,336,0.0,0.0,97,0.00,,,0.00,VWS V14.01,2013-07-27 11:00:00,
2013-07-27 07:05:00,55.2,54.4,29.82,NNW,336,0.0,0.0,97,0.00,,,0.00,VWS V14.01,2013-07-27 11:05:00,
2013-07-27 07:10:00,55.2,54.4,29.82,NNW,336,0.0,0.0,97,0.00,,,0.00,VWS V14.01,2013-07-27 11:10:00,
2013-07-27 07:15:00,55.3,54.5,29.82,NNW,336,0.0,0.0,97,0.00,,,0.00,VWS V14.01,2013-07-27 11:15:00,
2013-07-27 07:20:00,55.3,54.8,29.82,NW,309,0.0,0.0,98,0.00,,,0.00,VWS V14.01,2013-07-27 11:20:00,
2013-07-27 07:25:00,55.4,54.8,29.82,NW,309,0.0,0.0,98,0.00,,,0.00,VWS V14.01,2013-07-27 11:25:00,
2013-07-27 07:31:00,55.4,54.8,29.82,NW,309,0.0,0.0,98,0.00,,,0.00,VWS V14.01,2013-07-27 11:31:00,
2013-07-27 07:36:00,55.4,54.8,29.82,NW,309,0.0,0.0,98,0.00,,,0.00,VWS V14.01,2013-07-27 11:36:00,
2013-07-27 07:41:00,55.5,55.0,29.81,NW,309,0.0,0.0,98,0.00,,,0.00,VWS V14.01,2013-07-27 11:41:00,
2013-07-27 07:46:00,55.6,55.0,29.81,NW,309,0.0,0.0,98,0.00,,,0.00,VWS V14.01,2013-07-27 11:46:00,
2013-07-27 07:51:00,55.6,54.8,29.82,NW,309,0.0,0.0,97,0.00,,,0.00,VWS V14.01,2013-07-27 11:51:00,
2013-07-27 07:56:00,55.6,54.8,29.82,NW,309,0.0,0.0,97,0.00,,,0.00,VWS V14.01,2013-07-27 11:56:00,
2013-07-27 08:01:00,55.7,54.9,29.81,NW,309,0.0,0.0,97,0.00,,,0.00,VWS V14.01,2013-07-27 12:01:00,
2013-07-27 08:06:00,55.8,55.0,29.81,NW,309,0.0,0.0,97,0.00,,,0.00,VWS V14.01,2013-07-27 12:06:00,
2013-07-27 08:11:00,55.8,55.0,29.81,NW,310,0.0,0.0,97,0.00,,,0.00,VWS V14.01,2013-07-27 12:11:00,
2013-07-27 08:17:00,55.9,55.1,29.81,NW,310,0.0,0.0,97,0.00,,,0.00,VWS V14.01,2013-07-27 12:17:00,
2013-07-27 08:22:00,55.9,54.8,29.81,NW,310,0.0,0.0,96,0.00,,,0.00,VWS V14.01,2013-07-27 12:22:00,
2013-07-27 08:27:00,56.1,55.3,29.81,NW,305,0.0,0.0,97,0.00,,,0.00,VWS V14.01,2013-07-27 12:27:00,
2013-07-27 08:32:00,56.2,55.4,29.81,NW,309,0.0,0.0,97,0.00,,,0.00,VWS V14.01,2013-07-27 12:32:00,
2013-07-27 08:37:00,56.3,55.5,29.81,NW,306,0.0,0.0,97,0.00,,,0.00,VWS V14.01,2013-07-27 12:37:00,
2013-07-27 08:42:00,56.4,55.6,29.81,NW,309,0.0,0.0,97,0.00,,,0.00,VWS V14.01,2013-07-27 12:42:00,
2013-07-27 08:47:00,56.6,55.8,29.81,NW,309,0.0,0.0,97,0.00,,,0.00,VWS V14.01,2013-07-27 12:47:00,
2013-07-27 08:52:00,56.6,55.8,29.81,NW,309,0.0,0.0,97,0.00,,,0.00,VWS V14.01,2013-07-27 12:52:00,
2013-07-27 08:57:00,56.7,55.9,29.81,NW,308,0.0,0.0,97,0.00,,,0.00,VWS V14.01,2013-07-27 12:57:00,
2013-07-27 09:02:00,56.8,56.0,29.81,WNW,303,0.0,0.0,97,0.00,,,0.00,VWS V14.01,2013-07-27 13:02:00,
2013-07-27 09:08:00,56.8,56.0,29.81,WNW,303,0.0,0.0,97,0.00,,,0.00,VWS V14.01,2013-07-27 13:08:00,
2013-07-27 09:13:00,56.8,55.7,29.81,NNW,333,0.0,0.0,96,0.00,,,0.00,VWS V14.01,2013-07-27 13:13:00,
2013-07-27 09:18:00,56.8,55.7,29.81,NNW,331,0.0,0.0,96,0.00,,,0.00,VWS V14.01,2013-07-27 13:18:00,
2013-07-27 09:23:00,56.8,55.7,29.81,NNW,329,0.0,0.0,96,0.00,,,0.00,VWS V14.01,2013-07-27 13:23:00,
2013-07-27 09:28:00,56.9,55.8,29.81,NNW,330,0.0,0.0,96,0.00,,,0.00,VWS V14.01,2013-07-27 13:28:00,
2013-07-27 09:33:00,56.9,56.1,29.81,NNW,329,0.0,0.0,97,0.00,,,0.00,VWS V14.01,2013-07-27 13:33:00,
2013-07-27 09:38:00,56.9,56.1,29.81,NNW,331,0.0,0.0,97,0.00,,,0.00,VWS V14.01,2013-07-27 13:38:00,
2013-07-27 09:43:00,57.1,56.0,29.81,NNW,328,0.0,0.0,96,0.00,,,0.00,VWS V14.01,2013-07-27 13:43:00,
2013-07-27 09:48:00,57.1,56.0,29.81,NW,316,0.0,0.0,96,0.00,,,0.00,VWS V14.01,2013-07-27 13:48:00,
2013-07-27 09:54:00,57.2,56.1,29.81,NNW,338,0.0,0.0,96,0.00,,,0.00,VWS V14.01,2013-07-27 13:54:00,
2013-07-27 09:59:00,57.2,56.1,29.81,NNW,338,0.0,0.0,96,0.00,,,0.00,VWS V14.01,2013-07-27 13:59:00,
2013-07-27 10:04:00,57.3,55.9,29.81,NNW,340,0.0,0.0,95,0.00,,,0.00,VWS V14.01,2013-07-27 14:04:00,
2013-07-27 10:09:00,57.3,56.2,29.81,NNW,339,0.0,0.0,96,0.00,,,0.00,VWS V14.01,2013-07-27 14:09:00,
2013-07-27 10:14:00,57.3,55.9,29.81,NNW,339,0.0,0.0,95,0.00,,,0.00,VWS V14.01,2013-07-27 14:14:00,
2013-07-27 10:19:00,57.3,55.9,29.80,West,276,0.0,0.0,95,0.00,,,0.00,VWS V14.01,2013-07-27 14:19:00,
2013-07-27 10:24:00,57.1,55.7,29.80,WNW,296,0.0,0.0,95,0.00,,,0.00,VWS V14.01,2013-07-27 14:24:00,
2013-07-27 10:29:00,57.1,56.0,29.80,WNW,296,0.0,0.0,96,0.00,,,0.00,VWS V14.01,2013-07-27 14:29:00,
2013-07-27 10:34:00,57.1,56.0,29.80,NW,306,0.0,0.0,96,0.00,,,0.00,VWS V14.01,2013-07-27 14:34:00,
2013-07-27 10:39:00,57.1,56.0,29.80,NW,312,0.0,0.0,96,0.00,,,0.00,VWS V14.01,2013-07-27 14:39:00,
2013-07-27 10:44:00,57.1,56.0,29.80,NW,306,0.0,0.0,96,0.00,,,0.00,VWS V14.01,2013-07-27 14:44:00,
2013-07-27 10:49:00,57.1,56.0,29.80,NW,306,0.0,0.0,96,0.00,,,0.00,VWS V14.01,2013-07-27 14:49:00,
2013-07-27 10:54:00,57.1,56.0,29.80,NW,306,0.0,0.0,96,0.00,,,0.00,VWS V14.01,2013-07-27 14:54:00,